Wind_Speed
58 60 61 63 63 63 63 62 61 60 59 58 57 56 56 56 57 58 60 62 64 64 64 63 62 61 59 58 57 57 58 60 61 62 64 66 64 64 66 66 66 66 68 70 70 72 73 73 74 74 73 72 71 70 69 67 66 63 61 59 58 60 60 60 59 57 56 53 46 44 42 39 40 50 54 51 48 44 40 40 38 38 40 41 40 37 37 36
56 58 60 62 63 65 65 65 65 63 62 60 58 57 56 56 56 56 57 59 62 64 65 64 63 62 61 59 58 57 56 57 58 60 65 65 62 64 65 65 64 65 66 67 68 69 70 71 72 73 73 73 73 71 70 69 67 64 62 60 60 62 62 62 60 57 56 51 46 44 42 41 43 49 55 53 48 45 42 41 40 39 40 41 39 37 36 37
55 57 59 61 62 64 65 66 67 67 65 64 61 59 58 57 56 55 55 56 58 61 64 64 64 63 62 61 59 58 56 55 55 59 63 62 61 64 64 63 64 64 65 65 65 66 67 68 69 70 71 72 72 71 71 70 68 66 64 63 64 65 64 63 60 57 55 51 47 44 44 45 47 51 55 54 51 47 44 41 41 40 40 41 39 37 36 37
55 56 57 59 61 63 63 65 66 68 68 67 65 63 60 58 57 56 56 56 56 58 61 63 64 64 63 62 60 59 57 55 55 59 61 59 60 61 61 62 63 64 64 64 64 64 64 65 66 67 68 69 70 70 71 70 69 68 66 66 67 67 66 64 60 57 53 51 48 45 46 48 51 55 55 55 54 49 42 40 41 40 40 40 37 36 37 38
57 56 57 58 60 61 63 63 64 66 67 68 67 66 64 61 59 58 57 57 56 56 58 61 63 64 64 63 61 60 59 57 55 57 58 57 58 58 58 60 61 63 63 63 63 63 63 64 64 64 65 66 67 68 69 69 70 69 68 69 69 68 67 64 60 56 53 52 50 48 48 50 55 56 55 57 55 48 41 38 41 41 38 37 37 38 39 39
58 58 57 58 59 60 62 63 63 64 65 66 67 67 66 64 62 61 60 59 58 57 57 58 60 63 64 64 63 61 60 57 55 56 57 57 57 57 57 58 59 61 61 62 62 63 63 63 63 62 63 63 63 64 65 66 68 68 69 70 70 68 67 65 62 58 55 53 52 51 51 54 58 58 57 58 54 49 44 41 43 44 39 37 38 40 41 40
59 59 59 59 59 60 61 62 63 63 63 64 66 67 67 66 65 64 63 62 61 60 58 57 58 60 63 64 63 62 60 58 56 57 58 56 56 57 56 57 58 58 59 60 61 62 62 61 61 62 61 61 61 61 62 63 64 65 67 69 68 67 67 66 64 60 57 55 56 56 54 55 58 60 61 58 54 53 48 44 46 46 42 40 41 42 42 42
60 60 60 60 60 60 61 62 63 63 63 63 64 65 67 67 66 66 65 64 63 63 60 59 58 59 61 63 64 62 60 59 58 58 59 58 56 55 55 55 56 56 57 58 59 60 60 60 60 60 60 60 60 60 59 59 60 61 64 66 66 66 67 67 65 61 59 58 60 59 55 55 59 63 63 57 54 54 48 45 45 46 46 43 42 43 42 42
60 61 61 61 61 61 61 61 62 63 64 63 63 63 65 66 67 67 67 66 65 64 63 61 59 59 60 61 63 60 61 64 62 60 60 59 56 54 54 54 55 55 56 56 57 57 56 57 59 59 60 59 59 58 57 57 57 58 61 62 62 62 64 66 65 62 60 61 64 63 57 58 63 66 64 56 53 54 50 46 46 47 48 46 45 45 43 42
60 61 62 62 63 62 62 62 62 63 64 64 64 63 63 64 66 67 67 67 66 65 64 62 60 60 59 59 60 59 65 69 64 60 60 59 57 54 53 53 54 54 55 55 55 54 55 56 57 58 58 58 57 57 56 56 55 57 58 58 57 58 60 62 63 62 61 63 67 66 61 62 66 66 63 57 54 54 51 49 48 50 51 49 48 46 45 45
62 62 62 63 63 63 63 63 62 63 63 64 64 64 63 63 64 66 67 67 67 66 65 63 62 61 59 58 57 61 70 70 63 60 59 57 57 56 55 54 54 54 54 54 53 53 54 55 56 55 55 55 55 55 55 54 55 56 56 55 55 56 57 58 60 59 59 64 68 67 65 66 67 67 65 59 55 55 53 52 52 53 53 51 49 48 47 47
63 63 62 63 63 64 64 63 63 63 63 64 65 65 65 64 63 64 65 66 66 66 65 64 62 61 60 56 55 64 72 69 64 61 57 56 58 58 56 54 54 54 54 53 53 54 54 54 54 52 53 53 53 53 53 54 54 55 54 53 54 54 54 54 56 55 57 63 68 67 67 68 68 69 68 61 57 56 55 55 55 53 53 53 51 50 49 48
65 64 63 63 63 64 64 64 64 64 64 64 65 66 66 65 64 63 63 63 63 64 64 64 62 61 59 54 57 67 71 67 65 61 56 58 61 60 58 55 55 55 55 55 55 55 55 54 53 52 52 51 50 51 51 50 51 52 52 52 54 53 52 53 53 52 55 60 63 64 66 68 68 71 70 64 60 58 57 57 56 54 54 55 54 52 50 48
67 66 65 63 63 63 64 65 64 64 64 64 65 66 67 66 65 64 63 62 62 62 62 62 61 60 57 55 60 67 67 66 65 60 57 61 64 62 59 58 57 57 57 58 58 57 56 54 53 52 50 50 49 49 48 47 48 50 50 50 51 51 51 52 52 51 54 57 58 60 63 66 68 71 71 66 62 61 59 58 57 56 57 57 56 53 50 48
69 68 66 65 63 63 64 65 65 65 65 65 65 66 67 67 66 66 65 63 62 61 61 60 59 58 56 56 63 66 64 64 63 61 60 64 67 63 61 60 59 59 59 59 59 57 56 55 53 51 50 50 49 47 47 46 47 49 47 46 48 49 50 51 51 51 53 55 55 56 58 61 64 69 71 68 64 62 62 60 58 59 61 60 56 53 49 48
71 70 69 67 65 64 64 64 65 66 66 65 66 65 66 67 68 67 66 65 64 62 61 58 57 56 55 58 65 63 60 60 62 63 64 68 69 65 63 62 60 59 59 60 60 58 57 55 53 52 51 51 48 48 48 46 46 47 46 46 47 48 49 50 49 49 52 53 52 53 55 57 60 65 67 65 63 65 65 64 62 62 63 61 56 51 48 48
73 72 71 69 68 65 64 64 65 67 67 66 66 66 65 67 68 69 68 67 65 64 61 59 57 54 55 61 65 62 59 60 64 67 69 71 70 66 64 63 61 60 60 61 60 59 57 55 54 53 52 50 49 49 48 45 46 47 46 47 47 48 49 49 47 47 50 51 49 51 55 57 58 59 60 60 62 66 67 66 65 64 64 61 55 52 50 50
74 74 73 72 70 68 65 65 65 66 67 68 67 66 66 66 68 69 69 68 66 65 62 60 57 56 58 63 65 63 61 61 64 67 70 71 69 67 66 65 63 62 62 62 61 59 58 56 55 54 51 49 50 51 48 46 48 49 48 49 49 49 49 50 48 46 48 50 48 49 54 55 55 55 55 56 60 63 64 65 65 64 63 59 56 54 54 53
75 75 75 74 72 70 68 66 66 66 67 68 68 67 67 67 68 70 71 69 67 64 63 61 60 59 61 63 64 64 62 60 61 64 67 68 68 68 67 67 66 64 63 62 61 60 59 57 54 51 50 50 53 53 50 50 52 52 51 50 51 49 49 52 49 45 47 49 48 50 54 54 54 53 53 55 57 60 61 62 63 63 62 60 58 57 56 55
75 75 75 75 74 72 71 68 66 66 67 68 69 68 68 68 68 69 69 69 67 65 64 61 60 61 62 62 63 62 61 61 60 61 64 66 66 68 68 69 67 66 64 62 62 62 60 57 53 51 52 55 57 55 52 53 55 54 52 52 52 50 51 53 51 47 47 48 50 53 54 53 53 52 53 54 56 59 58 57 59 60 60 60 59 59 58 58
74 75 76 76 75 74 73 70 68 67 67 68 69 69 69 69 69 68 67 68 68 67 64 61 60 62 63 62 63 62 61 61 60 60 62 64 65 66 67 69 68 66 65 64 65 64 60 56 54 54 57 59 59 56 54 56 57 56 54 53 53 52 53 55 54 50 47 48 51 54 56 54 52 52 53 54 56 56 54 53 53 54 56 58 59 60 61 60
73 74 75 76 76 76 74 72 70 68 67 67 68 69 70 71 69 67 66 67 68 67 66 63 61 63 64 64 63 64 62 61 61 61 61 62 63 63 64 65 66 66 68 68 67 64 60 57 57 59 61 61 60 58 57 58 59 57 55 54 53 54 55 56 57 53 49 49 51 54 57 56 52 51 52 54 54 52 51 50 50 50 51 54 56 59 61 61
74 74 75 75 76 76 75 74 71 69 68 68 68 70 71 70 69 67 65 65 67 68 67 65 64 65 67 64 63 64 63 62 61 61 62 61 61 63 64 63 63 65 67 67 66 64 61 60 61 63 63 62 61 59 58 60 60 58 57 55 53 54 56 56 59 57 53 52 52 54 59 58 53 51 52 52 51 49 48 48 49 49 48 50 52 55 59 61
75 75 75 75 75 76 75 74 73 71 70 69 70 70 70 69 68 67 65 65 66 68 67 67 66 67 69 66 64 64 63 63 62 62 63 62 63 65 66 65 64 65 64 64 64 64 63 64 65 66 65 64 63 61 60 60 60 59 58 56 54 55 57 58 60 61 58 56 55 57 59 58 54 52 52 52 48 46 46 45 47 48 46 47 49 52 55 59
73 75 75 75 75 75 75 75 74 73 72 72 71 70 69 68 68 67 66 64 65 68 69 69 67 68 71 69 64 63 63 62 62 64 65 65 66 67 67 68 67 65 63 63 63 63 63 65 66 67 66 65 64 63 62 62 62 61 58 56 56 56 57 58 61 64 63 60 57 58 59 57 56 55 54 51 48 46 45 45 46 46 46 46 48 50 52 55
68 71 72 74 74 74 75 76 75 75 75 73 71 69 68 68 67 66 66 64 63 67 70 69 68 70 72 69 65 65 64 61 63 67 68 67 67 68 69 69 68 67 66 66 65 64 63 64 65 65 65 65 64 63 62 62 62 59 56 56 57 57 57 58 63 67 67 63 59 60 60 58 57 57 56 52 49 48 47 46 46 45 45 46 47 50 52 52
63 65 66 68 71 72 74 76 76 77 76 74 71 70 68 67 66 67 68 64 63 68 71 70 70 71 73 70 68 68 64 64 67 68 67 67 67 69 69 68 68 69 70 70 68 64 64 65 65 65 65 64 63 61 60 60 60 58 56 57 57 56 57 59 64 68 68 64 60 62 62 59 58 58 56 53 50 49 49 48 46 45 44 44 46 50 52 52
58 60 60 62 66 69 72 76 77 77 76 74 72 70 67 67 67 68 68 65 65 69 71 71 71 72 73 72 69 68 66 68 69 67 67 68 69 70 69 67 67 69 71 72 68 66 67 67 65 65 65 63 61 60 60 60 59 58 58 58 57 57 57 59 63 65 64 63 61 62 62 59 59 58 56 54 51 50 50 49 47 46 45 45 45 48 50 51
51 54 55 58 61 64 69 75 77 77 76 74 72 70 68 67 68 69 67 66 67 68 69 71 71 71 73 71 68 68 68 68 68 69 71 70 70 71 69 68 69 70 72 70 68 70 71 70 69 68 66 64 62 62 63 61 59 60 60 58 58 58 57 59 62 61 61 61 58 57 57 56 57 57 55 53 52 51 52 51 50 48 47 46 47 48 48 49
43 46 49 54 57 60 67 73 76 76 75 74 73 72 69 68 68 69 68 68 68 67 66 69 71 72 73 70 68 69 68 68 69 71 71 69 69 71 71 72 73 73 72 69 68 69 70 71 71 68 66 66 66 65 66 63 61 62 61 58 58 57 56 60 62 60 61 59 52 49 51 52 53 54 52 51 52 52 53 54 53 51 49 48 49 49 49 49
36 39 44 50 55 59 65 70 74 75 75 74 73 72 70 68 69 69 70 70 68 65 65 68 71 73 73 71 69 69 69 69 71 72 70 69 70 72 73 75 74 74 73 70 69 68 69 71 68 64 64 66 66 65 63 61 61 62 60 57 56 56 57 60 61 59 58 53 46 45 48 50 51 50 48 48 50 51 53 55 54 52 51 50 49 48 48 49
32 35 40 47 54 60 64 68 71 73 74 74 73 72 70 68 68 70 71 70 67 66 66 68 70 72 73 72 71 71 70 71 72 72 70 70 70 72 72 73 73 73 73 70 69 69 70 70 67 64 64 65 64 61 58 58 58 57 57 56 55 55 58 58 57 56 53 49 46 46 49 52 51 48 44 45 47 48 52 54 53 52 52 52 51 49 48 48
28 33 38 45 52 59 63 66 68 70 71 72 72 71 69 68 70 71 71 70 68 68 68 69 70 71 72 72 71 72 72 72 72 72 71 71 71 72 73 73 73 73 72 70 71 72 72 71 69 66 64 62 60 58 55 55 56 53 54 56 54 55 56 53 52 53 51 50 49 48 52 55 52 46 43 44 45 46 49 50 51 52 52 53 53 52 50 48
26 30 36 42 49 56 61 64 65 67 68 70 70 69 69 71 72 72 71 70 69 69 69 69 69 70 71 71 71 72 71 70 71 71 71 71 71 72 73 74 74 72 72 73 73 73 73 71 68 65 62 59 57 57 54 54 56 54 55 58 56 54 52 49 49 51 50 51 51 49 54 57 52 46 44 44 44 44 45 47 50 50 50 52 53 53 51 49
25 28 32 38 46 53 58 60 62 63 65 67 69 70 72 73 72 71 70 69 68 68 68 68 68 69 69 70 70 70 69 68 69 70 69 69 69 70 72 73 72 72 73 75 74 74 74 72 68 64 63 61 59 58 56 56 59 58 58 60 54 49 49 49 51 51 52 54 53 51 54 55 51 47 46 45 43 42 44 47 49 49 48 49 51 51 50 50
22 25 30 36 43 49 53 57 59 61 63 66 69 71 72 71 69 68 68 67 67 67 66 66 66 66 67 67 67 67 67 67 67 67 66 66 67 69 72 73 72 72 73 74 73 74 74 72 69 66 65 64 62 60 59 59 61 60 59 56 50 50 54 53 52 53 54 55 54 53 53 52 50 49 48 46 43 41 42 45 47 48 49 49 48 49 50 51
20 23 28 33 39 45 50 54 57 59 63 66 69 69 68 66 66 66 66 66 65 64 63 63 63 64 65 65 65 65 65 66 65 64 63 64 66 68 70 72 72 72 73 73 74 74 74 72 70 68 67 65 63 62 62 63 63 62 59 55 55 61 61 55 51 52 53 53 52 52 53 51 51 51 48 48 47 44 43 44 46 49 51 51 50 50 51 53
18 22 26 31 37 42 48 52 56 59 63 64 64 64 64 64 65 65 64 63 62 60 60 61 62 62 62 63 63 63 63 63 62 61 61 63 64 66 69 71 71 71 72 74 75 75 75 73 72 71 69 66 63 64 66 65 64 62 58 59 64 65 60 53 51 51 52 53 52 52 52 51 51 50 48 49 50 48 45 45 46 48 50 51 51 52 53 54
17 22 25 30 36 42 47 52 55 58 59 60 61 61 62 62 61 61 60 59 58 58 58 59 59 58 58 58 58 58 59 59 59 60 60 61 64 66 68 70 70 71 72 74 75 75 75 73 73 71 68 68 68 68 67 64 62 61 59 61 64 63 58 55 53 52 54 55 55 54 51 49 49 49 48 49 50 48 47 46 45 47 48 50 51 52 53 55
16 21 26 31 35 41 46 50 53 55 56 58 58 58 58 58 57 57 57 56 55 55 54 54 53 54 54 54 55 55 56 56 57 58 59 61 64 66 67 68 69 70 72 73 73 73 73 73 73 71 70 72 72 68 64 62 61 62 61 61 63 63 60 58 56 55 55 56 57 55 51 49 49 49 49 49 49 48 48 47 48 48 48 49 49 50 52 54
16 20 25 31 36 41 45 49 52 53 55 55 55 55 55 54 54 54 54 53 51 50 49 48 49 49 50 50 51 52 53 53 54 56 56 59 61 62 63 65 66 69 71 71 71 72 71 71 73 73 73 73 70 65 64 63 63 64 63 63 64 64 63 60 58 57 55 56 57 56 52 50 50 51 51 50 49 49 48 49 49 50 50 50 49 48 49 50
16 21 25 30 35 40 45 48 50 51 52 52 52 52 52 51 50 50 49 47 46 46 45 44 45 45 46 47 48 49 48 49 50 51 52 54 57 59 61 62 65 69 70 70 70 71 70 71 74 74 72 70 67 65 66 65 65 65 65 65 65 65 63 60 58 57 57 57 58 57 53 52 52 53 52 51 49 49 50 50 51 51 51 50 49 48 48 48
16 21 25 29 34 39 43 46 48 49 49 49 49 48 48 47 46 45 44 43 42 41 40 40 41 43 44 45 45 45 44 44 45 46 48 50 53 56 58 60 64 67 67 67 69 71 71 73 75 71 69 69 68 67 67 67 66 66 64 64 63 62 61 58 57 59 60 61 61 58 54 53 53 53 52 50 50 50 51 52 51 51 50 48 47 47 49 51
18 21 25 29 34 39 42 43 44 45 44 44 44 44 43 42 41 40 39 38 37 36 36 36 38 40 40 40 40 40 40 39 40 43 46 48 51 53 55 57 61 63 63 64 67 69 70 72 71 67 67 68 65 64 64 64 64 64 62 61 61 61 60 59 59 61 63 62 61 58 55 54 54 53 51 50 52 53 53 52 51 50 49 48 47 47 48 50
20 21 24 27 31 35 39 40 40 40 40 40 40 39 38 37 37 36 35 34 34 34 33 34 35 36 36 36 36 36 36 36 38 40 42 45 49 51 52 54 57 58 59 61 64 66 67 68 67 64 64 63 59 58 59 60 61 62 61 61 61 61 61 60 60 62 62 61 59 57 55 54 53 52 51 51 52 54 54 52 49 49 50 50 49 48 48 48
23 23 25 26 27 30 33 34 34 35 35 35 35 35 34 34 34 33 32 33 33 34 34 34 34 33 33 33 33 32 32 33 36 37 37 39 43 45 47 50 52 54 56 58 60 62 64 65 64 62 61 60 59 58 59 61 62 61 61 61 60 60 60 60 61 61 60 58 57 54 51 51 52 52 51 50 51 52 51 50 48 49 50 50 50 49 49 49
25 26 26 26 26 27 30 30 30 30 31 32 32 32 32 32 32 31 32 33 33 34 35 35 33 30 29 29 29 29 30 31 33 34 32 33 36 39 42 45 47 50 52 53 55 58 60 61 61 61 60 60 60 60 61 61 60 59 59 59 59 59 60 60 59 59 57 55 53 49 48 50 51 51 50 49 48 49 48 48 48 49 50 50 50 49 50 51
27 29 30 28 27 28 30 30 31 31 31 32 32 32 32 32 32 32 32 33 33 34 33 31 28 27 27 27 27 27 28 28 30 31 31 31 34 37 40 41 43 46 48 49 52 55 56 57 58 58 58 58 58 58 58 56 55 56 57 58 57 57 57 57 57 54 52 52 49 46 46 48 50 50 48 47 46 47 47 47 48 48 49 51 51 50 50 51
24 28 32 32 31 32 33 33 34 34 33 33 33 32 32 32 32 33 33 34 34 33 30 28 26 25 26 26 26 25 24 25 26 27 28 30 32 34 36 38 40 42 44 46 49 51 53 54 55 54 55 56 55 54 52 51 52 54 55 54 53 52 52 53 52 49 47 47 46 43 43 45 48 49 46 44 44 47 47 47 48 49 50 53 53 52 52 52
23 25 29 31 31 32 33 34 34 34 34 34 34 34 34 33 34 34 35 35 34 31 29 27 25 24 24 23 23 23 24 25 26 26 27 29 30 31 33 35 38 40 41 43 44 47 49 49 49 49 50 51 50 49 48 49 50 51 51 49 46 45 46 47 45 43 43 44 43 40 40 41 44 46 45 43 44 46 47 46 47 49 52 54 54 52 52 54
24 24 26 28 30 30 30 31 31 31 32 32 33 33 34 34 35 36 36 36 34 32 29 27 24 22 21 22 23 24 26 27 28 28 28 28 27 28 30 32 33 35 37 38 40 42 44 43 44 45 46 46 46 46 46 46 47 48 48 46 43 42 42 41 39 37 38 40 40 40 39 39 40 42 43 44 46 47 47 47 48 51 53 55 53 51 51 53
23 24 25 27 29 29 29 30 30 31 31 32 32 32 33 34 35 36 36 35 33 31 29 27 24 22 22 24 26 28 28 29 30 31 30 29 29 29 29 30 30 31 33 34 37 39 39 39 41 43 43 43 41 41 43 44 46 47 46 43 41 40 39 38 37 36 35 37 41 43 42 42 42 42 43 45 47 48 49 50 51 52 54 54 53 51 51 52
Wind_Direction
262 260 258 256 254 254 253 253 253 253 253 253 252 251 250 250 249 248 248 247 246 246 246 246 246 246 245 245 245 245 245 244 243 243 242 242 242 243 243 243 244 244 243 243 243 243 243 243 243 243 242 242 242 242 243 244 244 244 244 244 244 245 245 245 245 245 246 246 246 248 248 247 247 252 254 251 250 249 248 246 245 244 245 246 244 243 244 246
263 261 259 257 256 254 253 252 252 252 252 252 251 250 250 249 248 248 248 247 246 245 245 245 245 245 245 244 244 244 244 244 243 242 241 242 242 242 242 243 243 243 243 243 243 243 243 243 243 243 243 243 243 243 243 243 244 244 244 244 245 245 245 245 244 244 246 246 245 246 247 245 243 248 252 251 249 247 245 245 244 242 244 245 245 244 244 246
264 262 260 259 257 255 253 252 251 251 251 251 250 250 249 248 247 247 247 247 246 245 244 244 244 244 244 244 243 243 243 243 242 241 242 242 241 241 242 242 242 242 242 243 243 243 243 243 243 243 243 243 243 243 243 243 244 244 243 244 245 245 245 245 244 245 246 247 245 245 246 245 242 244 249 250 249 246 244 244 244 242 243 245 245 245 245 247
265 264 262 260 258 256 255 253 252 251 250 250 250 249 248 247 247 246 246 246 246 245 244 243 243 243 243 243 243 242 242 242 241 241 243 242 240 240 241 241 241 241 242 242 243 243 243 243 243 243 243 243 243 243 243 243 243 243 243 243 244 245 246 246 246 247 247 247 245 243 244 245 244 245 247 250 249 246 244 245 246 244 243 245 246 247 246 246
264 264 263 261 259 257 256 254 253 251 250 249 249 249 248 247 246 246 245 246 245 245 244 243 242 241 242 242 242 242 241 241 241 242 243 241 239 239 240 240 240 241 241 241 242 242 242 242 243 243 243 243 243 243 243 243 243 243 242 243 244 245 246 247 247 246 246 246 244 243 243 245 246 246 246 248 250 249 245 244 247 245 242 243 245 246 246 245
264 263 262 261 260 258 256 255 253 252 250 249 248 248 247 247 246 245 245 245 245 244 244 244 242 241 241 241 241 242 241 240 240 242 242 239 238 238 238 238 239 240 240 241 241 241 242 242 242 243 243 243 243 243 243 243 243 243 243 243 244 245 246 247 246 244 244 246 245 242 241 242 245 246 244 245 247 247 243 240 243 244 239 238 240 243 245 245
264 263 262 261 260 258 256 255 254 253 251 249 248 247 246 246 245 245 244 244 244 244 244 244 243 241 240 240 240 241 241 241 240 241 241 239 237 237 237 238 238 239 240 240 241 241 241 242 242 243 243 243 243 243 243 243 243 243 243 244 244 245 246 246 245 244 244 245 245 242 240 242 245 246 244 243 245 245 243 240 242 245 241 238 238 241 243 246
263 262 261 261 260 258 256 254 253 252 251 250 248 246 245 244 244 244 244 243 244 244 244 243 243 242 240 239 239 239 241 241 239 240 240 238 237 237 237 238 239 239 240 240 240 241 241 242 242 242 242 242 242 243 243 243 243 243 244 244 244 244 245 246 245 244 243 244 245 243 241 243 246 247 245 243 245 247 245 243 243 246 245 240 240 241 242 245
263 262 261 260 259 258 257 254 252 251 251 250 249 247 245 244 243 242 243 243 243 243 243 243 242 242 240 239 238 238 239 240 237 238 240 239 237 237 237 238 239 239 239 240 240 241 241 241 241 241 241 241 242 242 243 243 243 243 244 244 244 244 244 245 245 243 243 243 244 243 241 242 244 246 246 244 245 247 246 243 243 246 246 242 240 241 241 242
263 262 260 259 258 257 256 255 252 250 249 249 248 247 246 244 243 242 241 242 242 242 243 242 242 241 240 238 237 236 237 238 236 237 239 240 239 238 237 238 239 239 240 240 240 240 240 240 240 240 241 241 242 242 242 242 242 243 244 244 244 243 244 244 245 243 242 243 244 244 241 241 244 245 246 244 243 245 245 242 241 243 245 243 241 241 240 239
262 261 260 258 257 257 256 254 253 250 248 247 247 247 246 245 243 242 241 241 241 242 242 242 241 240 239 238 236 234 236 237 235 236 239 241 240 239 237 237 238 239 240 240 240 240 240 240 240 240 241 241 241 241 241 241 241 242 243 244 244 243 243 244 245 244 242 242 244 244 242 242 244 245 245 243 242 243 244 243 241 242 244 244 242 242 241 241
260 259 259 258 256 255 254 254 252 251 249 246 245 245 245 244 243 242 241 240 240 241 241 240 239 239 238 236 235 234 236 236 234 234 236 240 240 239 237 237 238 239 240 240 240 240 240 240 240 240 241 240 240 240 240 240 240 242 243 244 244 243 243 244 244 243 242 242 243 243 243 243 244 245 245 242 241 242 243 244 242 241 244 244 243 242 242 242
258 257 257 257 255 254 253 252 252 251 249 247 245 244 243 243 243 242 241 240 239 239 239 239 237 237 236 235 235 235 235 234 233 232 233 237 238 237 236 235 236 238 238 239 238 238 239 240 240 240 240 241 241 240 240 240 241 242 241 242 243 243 243 243 243 242 241 241 242 243 243 243 243 245 246 243 241 241 241 243 243 242 242 243 243 242 241 241
256 255 255 255 254 253 251 250 250 250 249 247 245 243 242 242 242 241 241 240 238 237 237 237 236 235 234 233 235 236 234 233 232 230 230 234 237 237 236 235 234 235 236 236 237 237 238 239 239 240 241 242 242 242 242 241 241 241 240 241 243 242 241 242 242 241 241 241 242 242 242 243 243 245 246 245 242 242 241 242 243 243 242 242 242 242 242 242
254 254 253 253 252 252 250 249 249 249 248 247 245 243 242 241 241 240 240 239 238 236 236 236 235 234 232 232 235 236 234 233 231 230 228 231 235 235 235 235 234 234 235 236 237 238 238 239 240 241 241 242 242 243 243 241 242 243 241 241 243 242 240 240 240 240 241 242 242 243 243 243 243 244 245 245 244 243 242 241 242 243 243 241 240 242 242 242
252 252 252 251 251 250 249 248 247 247 247 246 245 244 242 240 240 239 239 239 238 237 236 235 234 233 231 232 235 235 234 233 231 229 227 229 233 233 234 234 234 235 236 237 238 238 238 239 240 241 242 243 244 244 244 243 245 245 244 243 243 243 242 240 239 239 240 241 242 243 244 243 242 244 245 246 245 243 242 241 240 241 243 243 242 242 241 242
250 249 249 250 249 249 248 247 246 245 245 244 244 243 242 240 239 238 238 238 238 237 236 234 233 232 230 232 233 233 231 230 228 227 226 227 230 231 232 234 234 234 234 235 237 238 239 239 240 241 242 243 245 246 246 246 247 247 246 245 244 244 244 242 239 240 242 240 240 242 243 243 242 244 246 247 246 244 242 242 241 241 244 246 246 244 241 242
247 247 247 247 248 248 247 246 245 244 243 243 243 243 242 240 239 237 237 237 237 236 235 234 232 230 229 231 232 231 229 229 228 228 227 228 228 230 231 232 233 233 234 235 236 237 238 238 239 240 242 244 245 246 246 245 244 244 244 244 244 244 245 245 240 240 245 242 239 242 244 243 243 244 246 246 246 245 243 243 243 243 244 246 246 245 243 242
244 244 245 245 246 246 246 245 244 243 242 242 241 241 241 240 238 237 236 236 236 236 235 233 232 230 230 231 233 231 229 229 229 229 230 230 229 230 231 232 233 233 234 235 236 237 237 238 239 240 242 242 242 242 242 241 241 242 242 243 245 245 247 248 243 240 246 247 243 243 244 244 243 242 243 244 245 245 242 242 243 243 244 244 244 245 245 244
243 241 241 243 244 244 245 245 244 243 242 241 240 239 240 239 238 237 235 235 235 235 235 233 232 232 232 233 234 234 231 230 229 229 230 230 230 230 231 232 233 233 234 235 236 236 237 237 238 238 239 238 238 239 238 238 239 241 242 243 245 246 247 249 247 242 245 249 248 247 245 245 245 243 242 242 244 245 244 243 243 244 244 244 243 244 244 245
244 241 239 239 240 242 243 244 243 242 241 240 239 238 238 238 238 237 235 233 234 234 234 233 232 233 232 232 233 234 232 230 229 230 230 230 230 230 231 232 233 233 234 235 235 236 236 237 237 236 237 237 238 238 238 238 240 241 242 243 245 247 247 249 250 246 244 247 249 250 249 246 246 244 243 242 243 246 247 247 247 247 246 246 244 243 243 244
245 241 238 237 237 239 241 242 243 242 240 240 239 237 236 237 237 237 235 232 232 233 232 231 231 232 232 231 231 233 232 230 229 229 230 230 230 231 231 232 233 233 233 234 235 236 236 236 236 236 237 238 239 239 239 240 242 242 243 244 246 248 249 250 251 249 246 245 246 250 251 248 246 245 245 244 244 246 248 249 249 248 247 247 246 245 245 244
246 243 239 236 235 236 238 240 241 241 240 239 238 237 235 235 236 236 235 233 231 231 232 231 230 232 233 230 230 232 232 231 230 229 230 230 230 231 232 232 232 233 233 234 234 235 235 235 236 236 237 238 239 240 240 242 243 244 244 245 246 249 250 251 251 250 246 244 244 245 249 251 248 247 247 247 246 246 248 249 249 248 246 247 247 246 245 244
246 244 240 237 235 234 236 238 239 240 239 238 237 237 235 234 234 234 234 232 231 230 230 230 230 232 234 231 230 231 232 231 230 229 229 228 228 230 231 231 232 232 233 233 233 233 233 233 234 235 236 237 238 239 240 242 244 244 244 245 246 248 250 251 251 250 246 243 243 244 247 251 252 250 250 249 249 248 247 247 248 248 247 246 247 246 245 245
246 244 241 238 235 233 233 235 237 238 238 237 236 236 235 233 232 232 233 232 231 230 229 229 229 231 234 232 231 232 233 232 232 230 229 228 227 228 229 230 231 232 233 233 233 233 233 233 234 235 236 237 238 239 240 242 244 244 245 246 246 247 249 251 252 251 247 244 244 246 247 250 252 251 251 251 251 249 248 246 246 247 246 245 245 245 245 245
247 244 241 238 236 233 232 233 234 236 236 236 236 235 235 233 231 230 231 230 229 230 229 228 228 230 233 232 231 232 232 232 233 232 230 229 228 228 228 228 230 231 232 232 232 232 233 234 234 235 236 237 238 239 241 243 245 246 246 247 247 248 249 252 253 252 250 246 245 246 247 248 249 249 250 251 251 251 249 247 246 246 246 245 245 245 244 244
247 245 241 237 235 232 230 231 232 233 234 235 235 235 233 233 231 229 229 228 227 228 228 227 227 228 231 231 230 230 230 230 231 231 231 231 230 230 229 228 229 231 232 232 232 232 233 234 235 236 237 237 238 240 241 243 245 246 246 246 247 248 250 250 252 253 253 250 247 247 247 247 247 248 250 250 249 250 250 249 248 246 245 245 246 246 245 244
246 244 240 236 234 231 228 229 230 231 232 233 234 234 232 231 230 228 227 226 226 227 227 226 227 228 231 231 230 230 229 230 231 231 231 230 230 231 230 229 229 231 232 232 233 234 234 235 235 237 238 238 239 240 241 242 244 245 245 247 248 248 249 249 250 252 254 252 249 248 248 246 246 247 249 249 248 248 250 250 249 247 245 243 242 243 243 243
243 241 238 234 231 228 227 227 229 229 230 231 232 232 231 229 229 227 226 225 225 227 227 227 227 229 231 232 231 231 231 231 233 232 232 231 230 231 230 230 229 230 231 231 232 233 235 235 236 236 238 239 239 240 241 241 243 245 245 246 247 247 246 247 248 250 252 252 250 251 251 248 247 247 246 247 246 246 247 246 245 244 243 239 238 240 241 242
241 237 233 230 227 225 224 225 227 227 228 229 229 230 229 227 227 226 225 224 225 226 227 227 227 228 231 231 231 232 232 232 233 233 233 232 232 232 231 230 229 230 230 230 230 232 234 236 236 236 238 240 240 240 241 241 242 244 244 244 245 245 244 246 247 248 250 252 253 255 256 252 248 245 244 243 244 244 245 245 244 243 241 238 238 240 242 242
239 232 227 224 221 220 221 222 223 225 225 226 227 228 227 225 225 224 223 223 223 224 226 227 227 228 230 230 230 232 232 232 233 234 234 233 233 234 233 233 232 231 231 230 231 232 234 236 236 235 237 239 240 240 241 242 242 243 244 244 243 244 244 246 248 250 251 254 255 257 257 254 249 244 241 242 243 244 245 246 244 244 243 240 240 242 243 243
237 228 222 218 215 214 216 218 220 221 222 223 224 225 225 224 223 223 223 223 222 223 225 226 227 227 229 230 230 231 232 232 233 234 234 233 233 234 235 235 235 235 235 234 233 233 234 235 235 234 235 237 240 240 241 242 242 243 245 244 243 244 245 247 251 253 254 254 252 251 252 253 249 244 240 240 240 241 243 245 245 243 241 240 240 241 241 243
234 226 219 214 211 210 211 213 216 217 219 220 221 223 223 221 221 221 222 222 221 222 224 225 226 227 228 229 230 231 231 232 233 233 233 233 232 233 234 234 234 234 234 234 234 234 234 234 234 233 233 234 238 240 239 241 242 242 244 245 243 244 247 250 253 255 254 252 248 246 247 249 249 246 241 239 238 238 241 245 245 243 240 240 241 240 241 243
230 224 218 213 210 208 209 210 212 213 215 217 218 219 220 219 220 220 220 221 221 222 224 225 227 227 228 229 230 232 232 233 234 234 234 233 233 234 234 235 234 233 233 232 233 234 235 235 235 235 235 235 236 238 238 239 241 240 240 242 241 242 247 250 252 252 252 250 247 244 245 247 248 247 244 240 237 236 237 241 243 244 242 240 240 241 242 242
226 219 215 211 209 207 207 207 208 210 212 214 215 216 217 218 219 219 220 221 221 222 224 226 227 228 229 230 231 233 233 234 234 234 234 234 233 234 235 236 235 234 233 233 232 233 235 235 235 234 235 235 234 236 237 237 238 238 237 240 241 244 247 248 249 250 250 249 247 244 244 246 246 246 245 243 238 235 235 237 240 243 242 241 240 241 241 241
223 216 210 208 207 206 205 204 205 207 208 210 212 214 216 217 218 219 220 222 222 223 225 226 228 229 230 231 232 233 234 235 236 235 235 235 234 233 234 235 234 233 233 233 232 233 234 235 234 233 233 234 233 233 234 235 236 237 238 240 244 245 244 244 247 250 251 251 250 248 246 246 245 244 243 244 241 235 234 237 239 240 240 240 240 240 240 241
216 211 206 204 203 203 202 201 201 203 206 208 211 213 215 216 216 218 220 222 223 224 225 227 228 230 231 231 232 233 235 236 237 236 236 235 234 233 234 234 233 233 232 231 231 232 233 233 233 233 233 233 233 233 233 233 234 235 236 238 239 240 241 242 245 251 254 256 255 252 249 247 245 242 240 241 240 234 230 233 237 239 239 239 239 240 239 240
208 204 201 199 198 197 197 198 198 201 204 207 209 211 213 214 215 217 219 221 223 223 225 226 228 229 230 231 232 234 235 236 237 237 235 234 233 233 233 233 232 231 231 230 230 230 231 231 231 231 231 231 232 233 233 233 234 235 236 237 238 241 244 245 247 251 256 259 258 255 251 248 246 244 241 240 240 236 230 229 233 237 238 238 238 239 240 240
199 196 193 193 193 192 192 194 196 200 203 205 207 209 210 212 214 216 218 220 222 222 223 225 227 229 231 232 234 235 236 236 236 235 233 232 231 230 230 231 230 229 230 230 229 229 230 230 231 231 231 230 230 231 232 233 236 237 237 238 242 245 247 249 249 251 254 257 257 255 251 248 246 244 241 240 241 240 236 232 233 237 239 239 239 240 240 241
190 189 186 185 187 188 189 191 194 198 201 203 205 207 209 210 213 215 217 219 220 222 223 224 226 228 230 232 234 235 235 234 234 234 232 230 230 229 228 229 229 228 228 228 229 229 229 229 230 230 230 230 229 229 232 233 235 237 238 239 242 246 247 249 250 252 253 257 258 256 252 248 245 242 238 238 238 239 237 235 235 236 237 238 238 239 240 241
178 181 181 180 181 183 185 189 192 195 198 201 203 205 207 209 211 213 215 217 219 221 222 224 226 228 231 232 233 234 233 233 233 233 232 231 231 230 228 228 228 228 228 227 227 228 228 229 230 229 229 231 230 229 231 232 233 235 236 237 240 242 245 247 249 252 254 256 258 257 252 247 244 241 237 235 235 235 234 234 235 236 236 235 236 238 240 241
167 171 174 176 178 180 183 186 190 193 196 198 200 202 205 207 209 211 214 215 217 219 221 223 227 229 231 232 233 233 233 233 232 231 231 230 230 228 226 225 225 225 226 226 225 226 226 227 228 229 229 231 231 229 230 231 233 234 235 237 239 241 244 247 249 252 253 254 254 253 249 245 242 240 237 234 233 232 231 232 235 237 237 237 237 240 242 244
157 162 167 171 174 177 181 185 188 191 194 196 198 200 203 205 207 209 212 213 216 218 220 224 227 230 231 232 232 231 231 230 230 229 227 227 226 225 223 221 222 223 223 223 223 223 223 225 227 228 229 230 229 228 229 231 233 235 237 239 242 244 247 248 250 251 252 252 251 249 245 241 240 239 236 234 231 230 230 232 235 239 242 242 243 245 246 247
146 155 162 167 171 174 180 184 186 189 192 194 197 199 201 203 205 208 210 213 215 218 221 224 228 229 230 231 231 231 229 228 227 226 225 223 222 221 219 218 220 221 220 220 222 222 223 225 227 228 229 231 231 231 233 234 236 239 240 242 245 246 248 249 249 250 251 251 250 247 243 239 238 237 235 232 230 229 230 232 235 239 243 245 247 248 248 248
137 147 156 163 170 173 177 182 184 186 189 192 195 197 199 202 204 207 210 213 216 218 219 221 224 225 226 228 228 227 225 222 220 220 221 220 219 217 216 216 217 218 218 218 219 221 222 224 226 227 228 231 233 233 235 236 238 240 241 243 245 247 248 249 249 250 249 248 247 244 241 239 237 236 234 231 230 230 231 233 236 240 243 245 247 249 251 251
134 142 149 158 167 171 173 179 182 183 186 190 193 196 198 201 205 207 210 213 215 215 212 211 213 217 222 224 223 220 218 218 216 213 214 218 218 215 214 215 215 215 216 216 217 219 221 223 225 226 227 229 230 230 232 233 234 236 238 240 243 245 247 248 247 246 244 243 242 239 238 239 238 236 234 232 231 232 233 235 238 242 244 247 248 250 252 253
135 140 144 152 162 167 169 174 178 181 185 189 193 196 199 202 205 207 210 211 210 207 206 207 209 213 215 217 216 213 210 211 212 207 204 210 213 211 211 213 214 214 214 215 215 218 220 221 223 224 226 227 228 230 232 234 235 237 239 240 241 242 243 243 242 240 238 237 238 236 234 235 236 236 234 233 233 233 234 237 240 244 247 250 251 252 253 252
138 140 143 150 159 164 167 171 176 181 186 189 193 196 199 202 203 204 206 205 202 200 202 207 209 210 209 207 207 207 205 205 206 201 196 200 204 205 206 208 211 212 212 212 213 216 219 220 222 224 226 228 230 232 234 236 238 240 241 241 240 239 239 238 237 236 236 236 236 234 232 233 234 234 234 234 235 237 238 239 242 246 249 252 254 255 254 252
140 144 146 151 158 163 167 171 176 181 185 189 192 194 197 199 200 199 198 196 195 196 199 202 204 205 204 202 199 198 197 197 198 195 192 194 198 201 202 203 206 209 210 210 212 215 217 220 222 224 226 229 231 233 236 237 239 240 240 240 240 238 236 236 237 236 235 236 235 233 232 233 234 234 234 235 238 240 241 241 244 247 249 252 255 257 256 252
140 145 148 152 158 163 167 170 175 179 183 187 189 190 192 194 194 193 191 189 191 194 196 198 200 200 198 196 193 190 187 186 185 184 186 188 192 196 198 200 204 206 208 210 212 215 218 220 223 224 226 229 231 232 233 234 234 235 235 234 233 233 233 234 236 236 236 238 236 231 230 232 235 236 237 237 240 242 242 243 245 247 250 253 255 257 256 252
141 146 151 154 157 161 166 169 173 177 182 186 187 188 188 188 188 188 187 188 190 192 193 195 197 196 190 186 186 185 183 181 177 176 179 182 185 189 194 200 205 207 208 209 211 215 217 219 221 223 225 226 227 228 227 227 227 228 227 225 224 225 228 229 231 234 237 238 235 229 228 232 235 238 239 241 243 245 246 246 247 249 251 254 257 257 254 251
145 149 154 156 158 162 166 169 172 176 180 183 184 184 185 185 186 187 188 190 191 191 191 192 192 190 185 182 183 182 179 176 174 174 177 180 183 188 192 197 203 208 210 211 212 214 215 216 218 219 220 220 220 221 221 219 219 220 220 221 221 222 224 225 226 229 233 234 230 227 228 232 235 237 239 241 244 246 247 247 249 250 253 256 257 256 252 251
Height
10607 10607 10608 10609 10610 10611 10612 10614 10615 10616 10618 10620 10623 10625 10627 10629 10631 10634 10636 10639 10641 10643 10646 10649 10652 10655 10658 10661 10664 10666 10669 10673 10676 10681 10679 10680 10688 10691 10691 10694 10698 10701 10702 10705 10709 10712 10716 10719 10722 10726 10729 10732 10736 10739 10743 10746 10750 10756 10761 10765 10766 10763 10764 10765 10768 10774 10777 10785 10796 10798 10800 10803 10798 10790 10786 10790 10797 10806 10813 10815 10818 10820 10820 10820 10823 10827 10829 10831
10599 10599 10600 10600 10601 10603 10604 10606 10607 10609 10611 10613 10615 10618 10620 10622 10624 10627 10629 10631 10633 10635 10638 10641 10645 10648 10651 10655 10658 10661 10664 10667 10672 10674 10670 10675 10685 10684 10684 10689 10692 10694 10696 10699 10702 10705 10709 10712 10716 10719 10722 10726 10729 10734 10738 10740 10745 10751 10756 10759 10758 10755 10757 10759 10765 10771 10774 10785 10792 10793 10796 10796 10792 10786 10781 10785 10793 10802 10808 10810 10813 10815 10816 10816 10820 10824 10826 10827
10590 10591 10591 10592 10593 10594 10596 10597 10599 10601 10603 10605 10608 10610 10612 10615 10617 10620 10622 10624 10626 10628 10631 10634 10638 10641 10644 10648 10652 10655 10659 10662 10667 10665 10663 10673 10679 10676 10679 10683 10685 10687 10690 10693 10696 10699 10703 10706 10709 10712 10716 10720 10723 10729 10732 10735 10741 10745 10749 10752 10749 10748 10750 10754 10762 10769 10774 10782 10787 10789 10790 10788 10785 10781 10778 10782 10789 10797 10804 10807 10809 10811 10812 10813 10816 10820 10822 10823
10581 10582 10582 10583 10584 10585 10587 10588 10590 10592 10594 10597 10600 10602 10605 10607 10610 10612 10614 10617 10619 10621 10624 10627 10630 10634 10638 10641 10645 10649 10653 10657 10660 10658 10660 10670 10671 10670 10675 10677 10679 10681 10684 10687 10690 10693 10697 10700 10703 10706 10710 10714 10717 10722 10726 10730 10734 10737 10743 10744 10740 10742 10745 10752 10761 10768 10773 10777 10780 10784 10784 10780 10777 10777 10778 10779 10782 10792 10802 10806 10804 10806 10808 10810 10814 10816 10817 10818
10573 10573 10574 10575 10575 10576 10578 10580 10582 10583 10586 10588 10591 10594 10596 10599 10602 10604 10607 10609 10611 10614 10616 10619 10623 10627 10630 10634 10639 10643 10647 10651 10655 10654 10657 10663 10664 10666 10669 10670 10673 10674 10678 10682 10684 10687 10690 10693 10697 10700 10704 10707 10712 10716 10719 10724 10726 10730 10736 10734 10734 10739 10742 10750 10758 10764 10768 10770 10774 10778 10778 10775 10770 10773 10776 10773 10778 10790 10801 10803 10799 10800 10805 10808 10810 10811 10811 10813
10564 10565 10565 10566 10567 10568 10569 10571 10573 10575 10577 10580 10582 10585 10588 10591 10594 10596 10599 10601 10604 10607 10609 10612 10616 10620 10624 10628 10632 10636 10640 10646 10650 10648 10650 10655 10658 10660 10662 10664 10666 10668 10673 10676 10678 10681 10684 10688 10691 10695 10698 10702 10706 10710 10713 10717 10720 10725 10728 10727 10731 10736 10739 10745 10751 10758 10763 10764 10767 10769 10771 10767 10763 10766 10768 10769 10777 10786 10794 10798 10793 10794 10801 10804 10804 10805 10806 10808
10556 10556 10556 10557 10558 10559 10560 10562 10564 10567 10569 10571 10574 10576 10579 10583 10585 10588 10590 10593 10596 10599 10602 10606 10609 10613 10616 10621 10626 10630 10635 10640 10644 10641 10642 10648 10652 10653 10656 10658 10661 10664 10668 10670 10672 10675 10679 10683 10687 10690 10693 10697 10701 10703 10707 10712 10716 10719 10719 10722 10727 10732 10734 10738 10744 10753 10758 10759 10758 10760 10764 10763 10760 10758 10759 10768 10775 10779 10789 10794 10789 10790 10796 10799 10799 10801 10802 10805
10546 10547 10548 10548 10549 10550 10551 10553 10555 10558 10560 10563 10565 10567 10571 10574 10577 10580 10582 10585 10588 10591 10595 10599 10603 10606 10609 10615 10619 10625 10631 10632 10635 10634 10635 10641 10645 10648 10651 10654 10656 10659 10662 10664 10667 10670 10675 10679 10681 10684 10687 10692 10694 10698 10703 10707 10711 10712 10713 10717 10723 10727 10728 10731 10739 10747 10752 10753 10750 10752 10759 10760 10754 10748 10752 10768 10773 10775 10786 10790 10788 10787 10790 10794 10796 10797 10800 10802
10537 10537 10538 10539 10539 10540 10542 10544 10546 10549 10551 10554 10557 10559 10562 10565 10568 10571 10573 10577 10580 10583 10587 10591 10596 10599 10603 10609 10613 10622 10623 10618 10624 10628 10628 10634 10640 10644 10647 10648 10651 10653 10656 10658 10662 10666 10671 10673 10674 10677 10681 10685 10689 10694 10699 10702 10705 10706 10707 10711 10718 10722 10723 10726 10733 10740 10745 10745 10741 10745 10754 10753 10745 10741 10748 10766 10771 10772 10780 10785 10785 10783 10783 10789 10791 10793 10796 10798
10528 10528 10528 10529 10530 10531 10533 10535 10537 10539 10542 10545 10548 10551 10554 10556 10559 10562 10565 10568 10572 10576 10579 10584 10589 10592 10598 10602 10609 10618 10609 10604 10618 10624 10624 10630 10635 10638 10641 10643 10645 10648 10650 10653 10657 10661 10664 10665 10668 10672 10676 10681 10685 10690 10694 10697 10700 10701 10702 10707 10713 10717 10718 10721 10725 10733 10739 10738 10733 10738 10747 10744 10738 10738 10745 10761 10768 10768 10774 10779 10780 10778 10778 10782 10786 10789 10791 10793
10518 10518 10519 10520 10520 10522 10523 10526 10528 10530 10533 10536 10539 10542 10545 10548 10551 10553 10557 10560 10564 10567 10571 10577 10581 10586 10591 10596 10606 10606 10592 10597 10615 10619 10622 10626 10629 10631 10635 10638 10640 10642 10645 10648 10653 10655 10657 10659 10663 10668 10672 10677 10680 10684 10688 10692 10695 10695 10698 10703 10708 10710 10714 10716 10719 10727 10733 10730 10726 10731 10738 10735 10734 10734 10739 10755 10763 10764 10768 10771 10773 10773 10773 10777 10781 10783 10785 10788
10508 10508 10509 10510 10511 10512 10514 10516 10518 10521 10523 10526 10530 10533 10536 10540 10542 10546 10548 10552 10556 10560 10564 10569 10574 10580 10585 10593 10599 10590 10581 10595 10608 10614 10620 10621 10620 10623 10628 10633 10635 10637 10640 10643 10647 10649 10651 10654 10659 10664 10667 10671 10675 10679 10683 10686 10689 10691 10696 10699 10701 10705 10710 10712 10715 10722 10725 10721 10718 10724 10729 10729 10731 10728 10731 10749 10758 10759 10763 10763 10766 10770 10770 10773 10775 10778 10780 10784
10497 10498 10499 10500 10501 10503 10504 10507 10509 10511 10514 10517 10520 10523 10527 10531 10535 10538 10541 10545 10548 10552 10556 10561 10568 10573 10580 10589 10586 10574 10577 10592 10600 10609 10617 10613 10610 10614 10621 10627 10629 10631 10634 10637 10640 10642 10645 10649 10654 10659 10662 10666 10671 10674 10678 10682 10685 10688 10692 10694 10695 10701 10705 10706 10710 10715 10716 10714 10714 10719 10722 10724 10726 10721 10725 10743 10751 10754 10758 10756 10760 10765 10766 10766 10768 10772 10776 10780
10485 10487 10488 10489 10491 10493 10495 10497 10499 10502 10504 10507 10510 10514 10518 10522 10527 10530 10533 10537 10540 10544 10548 10553 10561 10566 10575 10580 10571 10566 10575 10586 10593 10605 10611 10605 10601 10607 10615 10620 10623 10624 10627 10629 10632 10636 10640 10645 10649 10654 10658 10662 10665 10669 10674 10679 10680 10682 10687 10690 10691 10697 10700 10700 10705 10709 10709 10708 10710 10714 10716 10718 10720 10717 10719 10733 10743 10749 10752 10753 10756 10758 10757 10759 10762 10767 10773 10778
10473 10474 10477 10479 10481 10483 10485 10487 10490 10492 10494 10497 10500 10504 10509 10513 10518 10521 10525 10529 10533 10537 10541 10547 10554 10559 10569 10569 10559 10560 10571 10580 10590 10597 10602 10597 10593 10601 10608 10611 10616 10618 10621 10624 10627 10632 10636 10640 10645 10650 10654 10657 10660 10665 10669 10673 10675 10677 10683 10686 10687 10691 10693 10695 10700 10703 10702 10703 10707 10710 10711 10713 10714 10711 10713 10726 10736 10742 10745 10749 10752 10749 10747 10751 10758 10765 10772 10775
10460 10462 10465 10467 10470 10472 10475 10477 10480 10482 10484 10487 10491 10495 10500 10504 10509 10513 10517 10521 10526 10530 10535 10542 10547 10554 10563 10558 10549 10557 10569 10576 10583 10586 10590 10588 10587 10595 10600 10604 10610 10614 10617 10619 10622 10627 10631 10636 10642 10645 10649 10652 10657 10661 10664 10669 10671 10673 10679 10681 10682 10685 10687 10690 10695 10697 10697 10699 10704 10705 10705 10706 10707 10705 10710 10721 10728 10731 10735 10741 10745 10742 10740 10745 10756 10765 10769 10769
10446 10449 10452 10455 10458 10460 10463 10467 10469 10471 10474 10478 10481 10486 10491 10495 10499 10503 10508 10513 10518 10523 10529 10536 10541 10549 10552 10545 10543 10553 10560 10564 10568 10573 10576 10577 10581 10589 10593 10599 10604 10608 10611 10613 10617 10622 10627 10633 10638 10641 10644 10649 10653 10655 10660 10667 10667 10668 10673 10675 10677 10679 10681 10685 10690 10692 10692 10695 10701 10700 10697 10699 10702 10704 10710 10716 10719 10721 10726 10732 10737 10738 10739 10745 10755 10762 10763 10763
10431 10435 10439 10442 10445 10448 10452 10456 10458 10461 10464 10468 10472 10477 10481 10485 10489 10494 10499 10504 10510 10516 10523 10530 10536 10541 10540 10536 10538 10544 10550 10555 10559 10564 10568 10572 10578 10584 10588 10593 10597 10601 10604 10608 10613 10617 10623 10628 10633 10637 10642 10647 10649 10651 10658 10662 10661 10662 10666 10668 10671 10674 10676 10678 10685 10689 10686 10689 10696 10694 10690 10694 10698 10703 10708 10709 10709 10712 10718 10725 10730 10735 10740 10746 10751 10753 10755 10756
10416 10420 10425 10429 10433 10437 10440 10444 10448 10451 10455 10458 10463 10468 10472 10476 10479 10483 10489 10496 10503 10510 10516 10522 10528 10530 10530 10530 10531 10536 10545 10550 10553 10559 10564 10569 10575 10579 10583 10586 10590 10595 10599 10605 10609 10613 10618 10623 10629 10636 10641 10643 10643 10646 10653 10654 10653 10655 10660 10663 10665 10670 10672 10671 10679 10687 10683 10684 10690 10687 10685 10689 10693 10700 10703 10702 10700 10702 10710 10718 10723 10730 10737 10742 10745 10746 10748 10750
10400 10406 10411 10415 10420 10424 10428 10432 10436 10441 10445 10449 10453 10458 10463 10466 10469 10474 10482 10490 10497 10502 10508 10516 10522 10523 10524 10526 10528 10533 10540 10544 10549 10555 10558 10563 10569 10573 10576 10580 10585 10590 10596 10602 10605 10607 10613 10620 10628 10634 10635 10635 10635 10640 10646 10646 10646 10649 10655 10659 10661 10666 10667 10665 10673 10682 10682 10681 10682 10679 10680 10685 10688 10695 10697 10695 10693 10695 10705 10714 10719 10725 10731 10736 10740 10742 10743 10744
10385 10391 10396 10401 10407 10411 10416 10421 10425 10430 10435 10439 10444 10449 10453 10455 10459 10467 10475 10482 10488 10494 10501 10509 10514 10515 10517 10521 10522 10526 10532 10539 10545 10548 10552 10557 10562 10566 10571 10575 10580 10587 10592 10596 10597 10601 10610 10618 10625 10627 10626 10626 10628 10634 10640 10640 10640 10645 10651 10655 10658 10661 10661 10661 10665 10675 10680 10678 10675 10673 10675 10680 10684 10688 10690 10690 10690 10693 10703 10712 10716 10721 10726 10729 10733 10736 10737 10738
10370 10375 10381 10387 10394 10399 10403 10409 10415 10420 10425 10429 10434 10439 10442 10445 10452 10459 10467 10475 10481 10487 10493 10500 10506 10507 10507 10513 10516 10519 10525 10532 10537 10541 10545 10551 10557 10562 10565 10569 10575 10580 10583 10587 10592 10599 10608 10615 10618 10618 10618 10620 10623 10629 10634 10634 10636 10642 10648 10651 10655 10656 10655 10656 10658 10667 10675 10673 10671 10669 10666 10672 10680 10682 10683 10685 10689 10695 10702 10709 10713 10716 10720 10722 10726 10729 10730 10732
10354 10360 10367 10373 10380 10386 10392 10398 10404 10409 10414 10419 10424 10427 10431 10438 10446 10453 10461 10469 10474 10479 10486 10493 10498 10497 10496 10505 10511 10513 10519 10526 10531 10536 10539 10545 10552 10555 10557 10563 10569 10571 10575 10582 10589 10595 10603 10608 10609 10610 10612 10614 10618 10624 10628 10629 10632 10638 10643 10647 10652 10651 10650 10651 10650 10658 10667 10666 10666 10664 10659 10665 10675 10677 10679 10682 10688 10695 10700 10705 10707 10710 10714 10716 10719 10722 10722 10724
10339 10345 10352 10359 10367 10374 10381 10387 10393 10399 10404 10408 10412 10416 10424 10432 10439 10445 10453 10460 10465 10472 10478 10483 10489 10489 10488 10497 10505 10507 10513 10519 10525 10529 10532 10538 10542 10545 10550 10556 10559 10563 10570 10577 10582 10588 10594 10597 10598 10600 10604 10608 10612 10617 10622 10624 10627 10633 10638 10643 10647 10645 10643 10643 10641 10647 10656 10658 10659 10659 10657 10662 10669 10673 10676 10680 10686 10692 10696 10700 10702 10704 10708 10711 10712 10714 10715 10716
10324 10329 10336 10345 10353 10362 10370 10376 10382 10388 10392 10396 10401 10408 10417 10424 10431 10438 10445 10453 10459 10464 10468 10474 10482 10482 10478 10488 10501 10504 10507 10514 10519 10522 10524 10529 10532 10536 10542 10546 10551 10559 10565 10569 10574 10581 10585 10588 10590 10594 10598 10603 10607 10612 10617 10620 10622 10628 10634 10638 10640 10638 10638 10638 10634 10635 10643 10651 10654 10653 10655 10660 10664 10667 10671 10677 10683 10687 10691 10694 10696 10698 10701 10703 10705 10706 10708 10710
10308 10314 10322 10331 10340 10350 10359 10364 10371 10376 10380 10386 10394 10401 10408 10415 10424 10432 10437 10446 10453 10454 10459 10466 10473 10472 10470 10483 10495 10496 10501 10509 10510 10510 10515 10521 10526 10529 10533 10540 10547 10553 10557 10560 10565 10573 10578 10581 10584 10588 10593 10597 10602 10607 10612 10615 10617 10624 10631 10631 10632 10633 10634 10633 10626 10623 10631 10644 10649 10648 10651 10656 10658 10661 10667 10674 10679 10682 10684 10687 10690 10693 10695 10697 10698 10699 10701 10704
10294 10300 10308 10318 10327 10338 10347 10353 10359 10364 10370 10379 10386 10392 10400 10408 10417 10424 10428 10439 10445 10443 10448 10456 10462 10463 10463 10475 10483 10487 10497 10500 10496 10502 10510 10517 10520 10521 10527 10535 10541 10545 10549 10551 10558 10569 10572 10574 10578 10583 10587 10592 10598 10604 10608 10609 10612 10620 10623 10622 10625 10627 10628 10625 10616 10613 10623 10637 10643 10642 10646 10652 10653 10657 10664 10670 10674 10676 10678 10681 10685 10689 10690 10691 10692 10691 10694 10697
10282 10287 10296 10306 10315 10326 10335 10341 10347 10353 10361 10371 10377 10384 10394 10401 10408 10414 10420 10432 10434 10433 10440 10447 10452 10454 10455 10466 10476 10482 10489 10488 10490 10499 10503 10507 10511 10513 10521 10530 10534 10537 10540 10545 10556 10564 10563 10566 10574 10577 10580 10587 10594 10599 10601 10603 10608 10612 10614 10615 10618 10620 10619 10616 10610 10611 10618 10626 10633 10636 10641 10649 10650 10653 10659 10664 10669 10672 10673 10676 10680 10682 10685 10686 10686 10685 10687 10690
10271 10277 10285 10294 10304 10314 10324 10330 10336 10344 10353 10362 10369 10376 10385 10392 10399 10405 10414 10423 10423 10426 10435 10440 10446 10449 10450 10461 10471 10475 10480 10484 10488 10491 10491 10497 10504 10508 10515 10522 10526 10527 10530 10541 10550 10553 10554 10560 10566 10569 10575 10583 10588 10591 10592 10598 10603 10603 10605 10609 10610 10612 10613 10608 10606 10610 10612 10616 10626 10632 10637 10645 10647 10649 10655 10660 10664 10666 10667 10669 10672 10674 10677 10679 10680 10681 10682 10685
10262 10268 10276 10284 10293 10303 10311 10318 10326 10335 10344 10353 10360 10367 10376 10384 10390 10398 10406 10411 10415 10423 10431 10434 10440 10442 10444 10456 10464 10466 10473 10478 10479 10479 10484 10496 10500 10502 10507 10511 10514 10517 10523 10534 10541 10544 10549 10552 10556 10565 10572 10576 10579 10582 10584 10592 10597 10595 10598 10603 10603 10605 10607 10601 10600 10606 10607 10613 10626 10630 10631 10636 10639 10644 10651 10655 10657 10660 10660 10661 10664 10667 10670 10674 10675 10677 10679 10682
10254 10260 10266 10274 10283 10292 10300 10307 10315 10325 10334 10343 10351 10359 10367 10375 10382 10390 10395 10400 10409 10419 10424 10426 10430 10434 10439 10448 10454 10458 10465 10469 10470 10473 10482 10491 10493 10495 10499 10502 10508 10513 10519 10529 10535 10540 10543 10543 10551 10562 10567 10567 10570 10575 10580 10586 10590 10589 10592 10597 10598 10600 10599 10595 10597 10602 10607 10617 10626 10626 10623 10624 10628 10637 10646 10650 10653 10656 10654 10654 10659 10663 10666 10669 10671 10673 10675 10677
10247 10252 10258 10264 10272 10280 10288 10297 10305 10315 10325 10335 10344 10352 10360 10369 10377 10381 10385 10393 10405 10412 10414 10416 10422 10427 10432 10439 10445 10451 10456 10459 10463 10468 10475 10483 10486 10489 10493 10498 10506 10511 10517 10527 10532 10533 10535 10538 10547 10554 10557 10560 10564 10570 10577 10579 10582 10587 10589 10591 10594 10594 10592 10594 10598 10600 10607 10616 10620 10619 10615 10613 10618 10631 10641 10645 10649 10650 10648 10648 10654 10657 10660 10662 10665 10667 10670 10672
10241 10246 10251 10256 10262 10270 10278 10287 10296 10307 10318 10329 10338 10346 10355 10363 10366 10370 10377 10388 10397 10401 10404 10408 10414 10419 10424 10431 10438 10442 10446 10451 10456 10462 10468 10475 10479 10482 10485 10491 10497 10504 10513 10520 10522 10524 10527 10532 10538 10544 10550 10557 10562 10566 10571 10575 10578 10583 10585 10584 10589 10589 10588 10594 10597 10597 10602 10607 10610 10612 10609 10605 10613 10626 10635 10640 10643 10644 10643 10644 10646 10649 10653 10656 10658 10661 10664 10667
10236 10240 10245 10250 10256 10263 10271 10279 10290 10302 10313 10323 10332 10341 10348 10352 10355 10362 10371 10379 10387 10393 10398 10403 10407 10413 10419 10424 10429 10433 10439 10446 10450 10455 10460 10467 10473 10476 10479 10484 10490 10499 10506 10509 10511 10516 10520 10525 10534 10542 10548 10554 10558 10560 10565 10570 10570 10575 10578 10576 10580 10585 10588 10591 10591 10590 10594 10595 10600 10605 10602 10602 10612 10622 10629 10633 10636 10638 10639 10639 10639 10642 10646 10649 10652 10654 10657 10661
10232 10236 10241 10247 10252 10258 10265 10275 10286 10297 10308 10318 10326 10333 10337 10340 10348 10358 10365 10372 10381 10387 10392 10397 10402 10407 10413 10418 10423 10428 10434 10439 10442 10447 10454 10461 10469 10473 10474 10479 10485 10493 10497 10499 10505 10510 10513 10520 10530 10538 10541 10545 10550 10553 10558 10561 10561 10566 10570 10569 10576 10584 10585 10583 10582 10583 10585 10586 10592 10597 10598 10602 10611 10618 10622 10626 10630 10633 10634 10633 10634 10636 10640 10643 10645 10648 10652 10655
10229 10233 10238 10243 10248 10255 10263 10273 10283 10293 10304 10312 10318 10323 10328 10336 10347 10356 10362 10369 10377 10382 10388 10394 10399 10404 10409 10414 10419 10423 10427 10432 10435 10441 10449 10456 10462 10466 10467 10471 10478 10484 10488 10493 10500 10504 10507 10515 10523 10529 10533 10536 10542 10546 10549 10551 10554 10559 10562 10568 10578 10578 10573 10574 10577 10578 10578 10579 10586 10592 10596 10602 10607 10612 10617 10620 10624 10628 10629 10629 10630 10631 10633 10637 10640 10643 10646 10648
10228 10231 10235 10240 10246 10253 10262 10270 10280 10291 10299 10305 10310 10318 10326 10336 10345 10352 10358 10364 10371 10379 10386 10392 10396 10400 10404 10409 10413 10417 10420 10424 10428 10436 10445 10450 10454 10459 10461 10464 10470 10476 10481 10486 10491 10495 10500 10508 10514 10520 10524 10529 10535 10539 10540 10542 10546 10552 10560 10568 10569 10561 10560 10569 10574 10573 10573 10576 10582 10587 10592 10597 10600 10605 10612 10614 10616 10619 10622 10623 10624 10625 10627 10631 10634 10636 10638 10640
10227 10230 10234 10239 10245 10252 10260 10268 10278 10286 10293 10300 10309 10318 10326 10333 10340 10346 10353 10360 10367 10376 10382 10386 10390 10394 10398 10402 10406 10410 10414 10418 10424 10431 10437 10441 10446 10450 10453 10456 10462 10468 10473 10477 10482 10486 10492 10499 10504 10509 10516 10523 10529 10530 10530 10535 10542 10549 10558 10560 10553 10551 10559 10568 10571 10572 10572 10573 10577 10580 10585 10591 10595 10600 10606 10607 10608 10611 10615 10617 10618 10619 10621 10625 10628 10630 10632 10633
10226 10229 10233 10238 10244 10251 10258 10267 10275 10283 10291 10300 10308 10315 10322 10329 10337 10343 10350 10357 10364 10370 10375 10380 10385 10390 10394 10398 10401 10406 10409 10414 10419 10422 10428 10434 10436 10440 10443 10447 10453 10460 10464 10468 10473 10478 10485 10491 10496 10502 10511 10516 10518 10520 10524 10533 10541 10545 10550 10550 10547 10550 10558 10563 10566 10569 10569 10568 10569 10573 10579 10585 10590 10595 10600 10601 10602 10606 10610 10612 10614 10615 10616 10619 10622 10624 10626 10627
10227 10230 10233 10238 10244 10251 10258 10267 10275 10283 10291 10299 10306 10314 10321 10328 10335 10342 10348 10354 10359 10366 10371 10376 10381 10385 10389 10392 10396 10399 10402 10407 10411 10415 10421 10424 10425 10430 10435 10440 10446 10452 10455 10460 10467 10472 10479 10485 10489 10496 10502 10502 10507 10518 10526 10533 10536 10537 10541 10544 10544 10547 10552 10556 10560 10563 10565 10565 10564 10567 10574 10580 10583 10587 10591 10594 10597 10600 10603 10606 10607 10608 10610 10613 10615 10617 10619 10621
10229 10232 10235 10240 10245 10252 10259 10267 10275 10282 10289 10297 10305 10312 10319 10325 10332 10338 10344 10351 10357 10363 10369 10374 10378 10381 10384 10387 10390 10392 10396 10401 10405 10408 10414 10417 10420 10425 10431 10435 10441 10445 10447 10453 10461 10465 10473 10479 10481 10487 10492 10495 10507 10520 10523 10524 10527 10529 10533 10536 10537 10540 10544 10549 10554 10557 10560 10561 10559 10562 10568 10573 10576 10580 10583 10587 10590 10592 10595 10597 10598 10600 10603 10605 10608 10611 10614 10617
10231 10234 10238 10243 10247 10254 10260 10267 10275 10282 10289 10297 10304 10310 10317 10324 10330 10336 10342 10349 10355 10360 10366 10371 10374 10377 10379 10382 10384 10388 10392 10396 10399 10403 10408 10411 10415 10419 10424 10429 10433 10435 10439 10448 10455 10460 10467 10471 10472 10479 10488 10494 10505 10512 10513 10516 10519 10521 10525 10527 10530 10534 10538 10545 10551 10552 10553 10553 10552 10555 10561 10566 10569 10572 10577 10582 10584 10585 10587 10589 10591 10594 10597 10601 10605 10608 10610 10612
10235 10238 10241 10246 10251 10257 10264 10270 10276 10283 10289 10297 10303 10310 10316 10323 10328 10335 10341 10347 10353 10358 10364 10368 10370 10372 10374 10377 10380 10384 10387 10391 10395 10398 10401 10404 10408 10412 10416 10421 10424 10427 10434 10443 10448 10453 10459 10461 10464 10475 10485 10489 10495 10501 10504 10508 10512 10515 10521 10524 10528 10532 10536 10542 10546 10544 10543 10543 10544 10548 10554 10559 10562 10566 10572 10577 10578 10578 10580 10583 10586 10589 10593 10598 10601 10604 10605 10606
10239 10242 10246 10250 10255 10260 10266 10273 10279 10286 10293 10299 10305 10311 10317 10323 10329 10335 10341 10347 10352 10357 10361 10364 10366 10368 10371 10374 10377 10380 10383 10386 10389 10391 10394 10398 10402 10405 10410 10415 10418 10423 10432 10438 10443 10448 10454 10457 10463 10473 10479 10482 10491 10498 10502 10507 10511 10514 10520 10523 10525 10529 10532 10535 10536 10534 10534 10536 10538 10543 10548 10553 10557 10561 10566 10570 10571 10572 10574 10577 10581 10585 10589 10593 10596 10598 10599 10601
10243 10247 10251 10256 10260 10264 10269 10276 10282 10289 10295 10301 10307 10313 10319 10325 10330 10336 10341 10346 10351 10354 10357 10360 10363 10366 10369 10370 10373 10375 10378 10380 10382 10385 10389 10392 10396 10400 10406 10410 10414 10421 10428 10433 10439 10445 10450 10454 10461 10469 10475 10481 10491 10498 10501 10505 10507 10509 10514 10517 10519 10522 10524 10527 10528 10526 10527 10530 10532 10537 10544 10549 10552 10556 10561 10563 10564 10566 10570 10573 10577 10581 10584 10587 10590 10592 10594 10596
10248 10252 10256 10261 10266 10270 10275 10281 10287 10293 10299 10304 10310 10315 10320 10326 10330 10336 10340 10344 10347 10350 10353 10355 10358 10361 10364 10366 10369 10371 10374 10376 10378 10381 10385 10390 10395 10399 10404 10408 10412 10418 10422 10428 10435 10441 10445 10451 10458 10465 10472 10478 10484 10489 10490 10493 10495 10500 10505 10509 10512 10514 10515 10518 10518 10518 10521 10523 10526 10534 10542 10546 10549 10552 10556 10558 10560 10563 10566 10570 10573 10576 10579 10582 10585 10587 10590 10591
10253 10257 10262 10266 10272 10276 10281 10287 10293 10298 10303 10307 10312 10317 10322 10326 10330 10335 10338 10341 10344 10347 10350 10352 10355 10358 10361 10364 10367 10369 10371 10374 10377 10380 10384 10389 10394 10398 10402 10405 10410 10414 10419 10426 10433 10436 10441 10449 10454 10460 10467 10472 10476 10479 10481 10484 10489 10494 10498 10501 10504 10506 10506 10507 10508 10510 10515 10518 10523 10532 10539 10541 10544 10548 10551 10554 10556 10559 10562 10566 10568 10571 10574 10577 10580 10582 10584 10586
10258 10260 10265 10271 10276 10281 10285 10291 10296 10300 10305 10309 10313 10317 10321 10325 10329 10332 10336 10339 10343 10346 10349 10352 10355 10357 10359 10361 10364 10367 10370 10373 10376 10379 10382 10387 10392 10395 10399 10404 10408 10412 10418 10424 10429 10433 10439 10446 10451 10456 10462 10467 10471 10473 10477 10482 10487 10489 10491 10494 10496 10497 10498 10500 10503 10508 10513 10517 10522 10530 10534 10536 10540 10543 10546 10550 10552 10554 10557 10561 10563 10566 10570 10572 10575 10577 10578 10580
10263 10265 10267 10272 10277 10282 10286 10291 10295 10299 10304 10308 10311 10315 10319 10323 10327 10330 10333 10337 10341 10344 10347 10350 10353 10355 10358 10360 10364 10367 10370 10373 10376 10380 10383 10386 10390 10394 10398 10403 10406 10410 10415 10421 10426 10431 10436 10441 10447 10453 10458 10462 10465 10469 10474 10480 10482 10483 10484 10487 10490 10494 10497 10499 10503 10509 10513 10515 10521 10526 10530 10533 10536 10538 10542 10546 10548 10549 10552 10555 10559 10562 10565 10567 10569 10571 10572 10573
10269 10271 10273 10275 10279 10283 10287 10291 10295 10299 10303 10306 10309 10313 10317 10321 10324 10328 10332 10336 10339 10343 10346 10349 10352 10354 10357 10361 10365 10368 10371 10373 10376 10379 10383 10386 10390 10394 10398 10401 10404 10408 10413 10419 10425 10429 10433 10439 10445 10450 10454 10457 10461 10466 10471 10474 10475 10476 10479 10483 10488 10493 10496 10499 10504 10509 10511 10513 10518 10523 10526 10529 10532 10534 10538 10541 10543 10544 10547 10552 10555 10557 10559 10561 10563 10565 10566 10566
10273 10276 10278 10280 10283 10286 10290 10293 10296 10300 10303 10306 10309 10312 10316 10319 10323 10326 10330 10334 10337 10341 10344 10348 10351 10354 10358 10362 10365 10368 10370 10372 10375 10379 10382 10385 10390 10394 10398 10401 10404 10408 10412 10418 10422 10426 10431 10437 10441 10445 10449 10453 10457 10461 10465 10467 10469 10471 10475 10479 10485 10489 10493 10498 10502 10505 10507 10510 10514 10518 10521 10524 10526 10529 10532 10535 10537 10540 10543 10547 10550 10551 10553 10555 10557 10559 10559 10559
10276 10278 10281 10283 10285 10288 10291 10294 10297 10300 10303 10306 10309 10312 10315 10318 10322 10325 10329 10333 10336 10340 10344 10347 10350 10354 10357 10360 10363 10366 10369 10373 10376 10378 10381 10385 10389 10393 10397 10401 10404 10407 10412 10417 10420 10423 10429 10433 10436 10439 10444 10449 10454 10457 10460 10462 10464 10467 10471 10477 10482 10486 10490 10494 10497 10500 10502 10505 10509 10512 10516 10518 10521 10524 10528 10530 10533 10535 10538 10541 10544 10546 10548 10549 10551 10552 10552 10553